[[{"header":{"parameterUnit":"m.s-1","parameterCategory":1,"la1":30.2991,"la2":30.254,"lo1":-89.0895,"lo2":-89.0444,"dy":0.0017,"dx":0.0017,"nx":28,"ny":28,"refTime":"2025-01-17T03:00:00:Z","depth":0,"parameterNumber":2,"parameterNumberName":"U-component_of_WINDS"},"data":[0,0,0,0,0,0,0,0,0,0,0,0,0,0,0,0,0,0,0,0,0,0,0,0,0,0,0,0,0,0,0,0,0,0,0,0,0,0,0,0,0,0,0,0,0,0,0,0,0,0,0,0,0,0,0,0,0,0,-1.7061,-1.7061,0,-1.7042,-1.7042,-1.7041,-1.7001,-1.7001,-1.7,-1.6999,-1.698,-1.698,-1.698,0,0,0,0,0,0,0,0,0,0,0,0,0,-1.7062,-1.7062,-1.7061,-1.7061,-1.706,-1.7042,-1.7042,-1.7041,-1.7002,-1.7001,-1.7,-1.6999,-1.698,-1.698,-1.698,0,0,0,0,0,0,0,0,0,0,0,0,0,-1.7054,-1.7062,-1.7061,-1.7038,-1.7036,-1.7042,-1.7042,-1.7041,-1.7002,-1.7001,-1.6999,-1.6998,-1.698,-1.698,-1.698,-1.7007,0,0,-1.6982,-1.6982,0,0,0,0,0,0,0,0,-1.7054,-1.7054,-1.7042,-1.704,-1.7037,-1.7023,-1.7035,-1.703,-1.7002,-1.7015,-1.6999,-1.6998,-1.6995,-1.6994,-1.6993,-1.7006,-1.7005,-1.6982,-1.6982,-1.6982,-1.6982,0,0,0,0,0,0,0,-1.7055,-1.7054,-1.7053,-1.7042,-1.7039,-1.7029,-1.7026,-1.7034,-1.7012,-1.7014,-1.7011,-1.7009,-1.6994,-1.6993,-1.6993,-1.7005,-1.6982,-1.6982,-1.6982,-1.6982,-1.7037,-1.7038,0,0,0,0,0,0,-1.7059,-1.7055,-1.7054,-1.7053,-1.7043,-1.703,-1.7027,-1.7029,-1.7012,-1.7008,-1.701,-1.7007,-1.6993,-1.6992,-1.6992,-1.7021,-1.6982,-1.6982,-1.6983,-1.7036,-1.7037,-1.7038,0,0,0,0,0,0,-1.7059,-1.7059,-1.7055,-1.7053,-1.7052,-1.7031,-1.7033,-1.7029,-1.7028,-1.7009,-1.7005,-1.7013,-1.6992,-1.6991,-1.7003,-1.702,-1.6982,-1.6983,-1.7034,-1.7036,-1.7038,-1.708,0,0,0,0,0,0,-1.7059,-1.7059,-1.707,-1.7054,-1.7052,-1.7067,-1.7034,-1.7029,-1.7029,-1.7025,-1.7011,-1.7008,-1.6991,-1.7003,-1.7003,-1.7019,-1.6983,-1.7033,-1.7035,-1.7037,-1.7077,-1.7083,-1.7088,0,0,0,0,0,-1.7059,-1.7083,-1.707,-1.7071,-1.7065,-1.7068,-1.7067,-1.7047,-1.7031,-1.704,-1.7028,-1.7008,-1.7018,-1.7004,-1.7005,-1.7021,-1.7032,-1.7034,-1.7037,-1.7075,-1.7082,-1.7088,0,0,0,0,0,0,-1.7102,-1.708,-1.7066,-1.7085,-1.7079,-1.7061,-1.7073,-1.7056,-1.7054,-1.7051,-1.7026,-1.7023,-1.7038,-1.7031,-1.7016,-1.7045,-1.7021,-1.7024,-1.705,-1.7056,-1.7062,-1.7064,-1.6983,0,0,0,0,0,-1.7113,-1.7118,-1.7099,-1.7118,-1.7115,-1.7095,-1.7096,-1.7081,-1.7073,-1.707,-1.7058,-1.7051,-1.7052,-1.7054,-1.7054,-1.7075,-1.7071,-1.7087,-1.7092,-1.7097,-1.71,-1.711,-1.7116,-1.7048,-1.7048,-1.7048,0,0,-1.7137,-1.7126,-1.7131,-1.7126,-1.7119,-1.7124,-1.7093,-1.71,-1.7103,-1.7071,-1.7081,-1.7072,-1.7063,-1.7079,-1.7086,-1.7074,-1.7118,-1.7101,-1.7104,-1.7105,-1.7113,-1.712,-1.7125,-1.7049,-1.7049,-1.7049,0,0,-1.7184,-1.7176,-1.719,-1.7183,-1.7173,-1.7159,-1.7163,-1.7147,-1.714,-1.715,-1.7125,-1.7129,-1.7132,-1.7126,-1.7123,-1.7165,-1.7146,-1.7165,-1.7195,-1.7204,-1.721,-1.7215,-1.7229,-1.7235,-1.7168,-1.7169,-1.7169,0,-1.7215,-1.7222,-1.72,-1.7208,-1.7206,-1.7176,-1.719,-1.7184,-1.7175,-1.7174,-1.716,-1.7162,-1.7154,-1.7168,-1.7178,-1.7177,-1.7179,-1.7167,-1.7211,-1.7215,-1.7219,-1.7233,-1.7238,-1.7171,-1.7171,-1.717,-1.717,0,-1.7261,-1.7266,-1.7278,-1.7269,-1.7268,-1.7279,-1.7258,-1.726,-1.7244,-1.7232,-1.7242,-1.723,-1.7227,-1.7229,-1.7214,-1.724,-1.7233,-1.7215,-1.7191,-1.7229,-1.7241,-1.7246,-1.7174,-1.7173,-1.7173,-1.7172,0,0,-1.7335,-1.7312,-1.7317,-1.7312,-1.7297,-1.7301,-1.7309,-1.7306,-1.7308,-1.7301,-1.7308,-1.731,-1.7293,-1.729,-1.7274,-1.7283,-1.7316,-1.7264,-1.7263,-1.7273,-1.7343,-1.7356,-1.7363,-1.7303,-1.7304,-1.7305,-1.7343,0,-1.7378,-1.7393,-1.7372,-1.7391,-1.7394,-1.7365,-1.7373,-1.7364,-1.7352,-1.7353,-1.734,-1.7341,-1.7319,-1.7317,-1.7324,-1.731,-1.7329,-1.7307,-1.7309,-1.7309,-1.7312,-1.7369,-1.7384,-1.7421,-1.7348,-1.7349,-1.7349,0,-1.7431,-1.7427,-1.7446,-1.7429,-1.7429,-1.7437,-1.7431,-1.7432,-1.7422,-1.7412,-1.7408,-1.7389,-1.7395,-1.7371,-1.738,-1.7365,-1.7364,-1.7357,-1.7358,-1.7358,-1.7332,-1.737,-1.7433,-1.7438,-1.7357,-1.7356,-1.7356,0,-1.7483,-1.7482,-1.7493,-1.7489,-1.747,-1.7475,-1.7467,-1.7455,-1.7454,-1.7449,-1.7447,-1.7443,-1.7441,-1.7437,-1.7417,-1.7402,-1.7428,-1.7402,-1.742,-1.7421,-1.7428,-1.7427,-1.7491,-1.7427,-1.7427,-1.7427,-1.7426,0,-1.7534,-1.7547,-1.7516,-1.7523,-1.7536,-1.7511,-1.7524,-1.7513,-1.7502,-1.7506,-1.748,-1.7484,-1.7457,-1.7458,-1.7442,-1.7451,-1.745,-1.7442,-1.7438,-1.7445,-1.7446,-1.7444,-1.7441,-1.7428,-1.7428,-1.7427,-1.7427,0,-1.7595,-1.7575,-1.7585,-1.7565,-1.756,-1.757,-1.7553,-1.7558,-1.7543,-1.7548,-1.7548,-1.7525,-1.7524,-1.7503,-1.7498,-1.7487,-1.7503,-1.7494,-1.7507,-1.7504,-1.7523,-1.7521,-1.7587,-1.7595,-1.7526,-1.7527,-1.7527,0,-1.7629,-1.7638,-1.7618,-1.7619,-1.7612,-1.7613,-1.7611,-1.7586,-1.7585,-1.7572,-1.7579,-1.7576,-1.7572,-1.7572,-1.7555,-1.7551,-1.7541,-1.7565,-1.7541,-1.7547,-1.7542,-1.7541,-1.7542,-1.757,-1.7571,-1.7572,-1.7572,0,-1.7692,-1.7681,-1.7679,-1.7673,-1.7671,-1.7666,-1.7658,-1.766,-1.7633,-1.7633,-1.7631,-1.7628,-1.7622,-1.762,-1.7612,-1.7603,-1.7583,-1.758,-1.7584,-1.7591,-1.7598,-1.7594,-1.7521,-1.7579,-1.7578,-1.7578,-1.7577,-1.7577,-1.774,-1.7746,-1.7733,-1.7731,-1.7723,-1.7716,-1.7719,-1.7705,-1.7703,-1.7696,-1.7681,-1.7682,-1.7669,-1.7657,-1.7649,-1.7649,-1.7637,-1.7643,-1.7644,-1.7646,-1.765,-1.7598,-1.7648,-1.7647,-1.7647,-1.7647,-1.7647,0,-1.7801,-1.7791,-1.7789,-1.7779,-1.7778,-1.7758,-1.7748,-1.7748,-1.7749,-1.7739,-1.7735,-1.7733,-1.7729,-1.7711,-1.7706,-1.7709,-1.77,-1.7708,-1.7708,-1.7706,-1.7661,-1.7658,-1.7716,-1.7716,-1.7716,-1.7716,-1.7716,-1.7716,-1.7833,-1.7842,-1.7829,-1.7833,-1.7822,-1.7822,-1.7818,-1.7812,-1.7803,-1.7801,-1.7798,-1.7786,-1.7772,-1.7765,-1.7761,-1.7755,-1.7754,-1.7766,-1.7758,-1.7716,-1.771,-1.7703,-1.77,-1.7766,-1.7766,-1.7803,-1.7803,-1.7804]},{"header":{"parameterUnit":"m.s-1","parameterCategory":1,"la1":30.2991,"la2":30.254,"lo1":-89.0895,"lo2":-89.0444,"dy":0.0017,"dx":0.0017,"nx":28,"ny":28,"refTime":"2025-01-17T03:00:00:Z","depth":0,"parameterNumber":3,"parameterNumberName":"V-component_of_WINDS"},"data":[0,0,0,0,0,0,0,0,0,0,0,0,0,0,0,0,0,0,0,0,0,0,0,0,0,0,0,0,0,0,0,0,0,0,0,0,0,0,0,0,0,0,0,0,0,0,0,0,0,0,0,0,0,0,0,0,0,0,-0.5949,-0.5949,0,-0.593,-0.5929,-0.5929,-0.5909,-0.5909,-0.5909,-0.5908,-0.5889,-0.5889,-0.5889,0,0,0,0,0,0,0,0,0,0,0,0,0,-0.5971,-0.597,-0.5949,-0.5949,-0.5949,-0.593,-0.5929,-0.5929,-0.5909,-0.5909,-0.5909,-0.5908,-0.5889,-0.5889,-0.5889,0,0,0,0,0,0,0,0,0,0,0,0,0,-0.5957,-0.597,-0.5949,-0.5937,-0.5935,-0.593,-0.5929,-0.5929,-0.5909,-0.5909,-0.5908,-0.5908,-0.5889,-0.5889,-0.5889,-0.5894,0,0,-0.5887,-0.5887,0,0,0,0,0,0,0,0,-0.5958,-0.5957,-0.5939,-0.5938,-0.5936,-0.5921,-0.593,-0.5917,-0.5909,-0.5919,-0.5908,-0.5908,-0.59,-0.5899,-0.5896,-0.5893,-0.5893,-0.5887,-0.5887,-0.5887,-0.5887,0,0,0,0,0,0,0,-0.5959,-0.5957,-0.5942,-0.5939,-0.5937,-0.5932,-0.593,-0.5927,-0.5912,-0.5918,-0.5917,-0.5915,-0.5899,-0.5897,-0.5896,-0.5892,-0.5887,-0.5887,-0.5887,-0.5887,-0.5893,-0.5893,0,0,0,0,0,0,-0.5962,-0.5958,-0.5942,-0.5941,-0.5946,-0.5932,-0.5929,-0.5927,-0.5912,-0.591,-0.5915,-0.5914,-0.5897,-0.5896,-0.5895,-0.59,-0.5887,-0.5887,-0.5886,-0.5892,-0.5893,-0.5893,0,0,0,0,0,0,-0.5962,-0.5961,-0.5943,-0.5949,-0.5947,-0.5932,-0.5929,-0.5926,-0.5923,-0.591,-0.5907,-0.5915,-0.5897,-0.5895,-0.5894,-0.5899,-0.5886,-0.5886,-0.5892,-0.5892,-0.5893,-0.5911,0,0,0,0,0,0,-0.5963,-0.5961,-0.5963,-0.5949,-0.5946,-0.5943,-0.5929,-0.5926,-0.5923,-0.5921,-0.5909,-0.5907,-0.5897,-0.5895,-0.5894,-0.5898,-0.5886,-0.5891,-0.5892,-0.5893,-0.591,-0.5912,-0.5914,0,0,0,0,0,-0.5964,-0.5969,-0.5963,-0.5961,-0.5948,-0.5943,-0.5941,-0.593,-0.5923,-0.5925,-0.5916,-0.5907,-0.5899,-0.5895,-0.5894,-0.5898,-0.5891,-0.5892,-0.5893,-0.5909,-0.5912,-0.5914,0,0,0,0,0,0,-0.5984,-0.5967,-0.596,-0.5961,-0.5954,-0.594,-0.5942,-0.5933,-0.5927,-0.5926,-0.5912,-0.5909,-0.591,-0.5904,-0.59,-0.5903,-0.5893,-0.5894,-0.5907,-0.5909,-0.5911,-0.5913,-0.5885,0,0,0,0,0,-0.5989,-0.5986,-0.5971,-0.5974,-0.597,-0.5957,-0.5954,-0.5945,-0.5937,-0.5934,-0.5925,-0.5918,-0.5913,-0.5911,-0.5906,-0.5909,-0.5906,-0.5911,-0.5913,-0.5915,-0.5916,-0.5917,-0.5919,-0.5896,-0.5896,-0.5896,0,0,-0.5999,-0.5989,-0.5988,-0.5977,-0.597,-0.5968,-0.5954,-0.5952,-0.595,-0.5934,-0.5932,-0.5925,-0.5916,-0.5917,-0.5917,-0.5912,-0.5921,-0.5916,-0.5918,-0.5918,-0.5918,-0.592,-0.5922,-0.5896,-0.5896,-0.5896,0,0,-0.6015,-0.6007,-0.6008,-0.6001,-0.599,-0.5981,-0.5981,-0.5968,-0.5963,-0.5961,-0.5949,-0.5946,-0.5939,-0.5933,-0.5929,-0.5941,-0.5933,-0.594,-0.5951,-0.5952,-0.5954,-0.5955,-0.596,-0.5961,-0.5941,-0.5941,-0.5941,0,-0.6028,-0.6023,-0.6009,-0.6008,-0.6003,-0.5988,-0.5989,-0.5983,-0.5972,-0.5969,-0.5963,-0.5954,-0.5947,-0.5945,-0.5948,-0.5946,-0.5945,-0.5942,-0.5954,-0.5956,-0.5957,-0.5961,-0.5963,-0.5942,-0.5942,-0.5942,-0.5942,0,-0.604,-0.6036,-0.6038,-0.6027,-0.6023,-0.6022,-0.6009,-0.6006,-0.5998,-0.5989,-0.5987,-0.5978,-0.5971,-0.597,-0.5962,-0.5967,-0.5965,-0.5957,-0.5948,-0.596,-0.5964,-0.5965,-0.5943,-0.5943,-0.5943,-0.5942,0,0,-0.6069,-0.6049,-0.605,-0.6045,-0.6031,-0.6029,-0.6027,-0.602,-0.6018,-0.601,-0.6009,-0.6003,-0.5995,-0.5991,-0.5982,-0.5983,-0.5993,-0.5975,-0.5974,-0.5978,-0.5998,-0.6004,-0.6006,-0.5987,-0.5987,-0.5987,-0.5999,0,-0.6083,-0.6079,-0.6066,-0.6066,-0.6063,-0.6048,-0.6047,-0.6038,-0.603,-0.6026,-0.6017,-0.6013,-0.6004,-0.6001,-0.6001,-0.5992,-0.5996,-0.599,-0.5985,-0.5985,-0.5988,-0.6008,-0.6014,-0.6025,-0.6,-0.6,-0.6,0,-0.6098,-0.6091,-0.6091,-0.6077,-0.6075,-0.6074,-0.6066,-0.6062,-0.6052,-0.6046,-0.6041,-0.603,-0.6028,-0.6019,-0.6016,-0.6012,-0.6009,-0.6004,-0.6004,-0.6003,-0.5994,-0.6007,-0.6029,-0.6031,-0.6002,-0.6002,-0.6002,0,-0.612,-0.611,-0.6108,-0.6104,-0.6088,-0.6087,-0.608,-0.607,-0.6066,-0.6059,-0.6056,-0.6049,-0.6045,-0.604,-0.6028,-0.6023,-0.6026,-0.6016,-0.6021,-0.6022,-0.6023,-0.6023,-0.6044,-0.6021,-0.6021,-0.6021,-0.6021,0,-0.6136,-0.6137,-0.6117,-0.6116,-0.6116,-0.6101,-0.6102,-0.6094,-0.6084,-0.6082,-0.6068,-0.6066,-0.605,-0.6046,-0.6037,-0.6035,-0.6034,-0.6029,-0.6027,-0.603,-0.6031,-0.6028,-0.6027,-0.6021,-0.6021,-0.6021,-0.6021,0,-0.616,-0.6147,-0.6144,-0.6129,-0.6125,-0.6125,-0.6112,-0.6111,-0.6101,-0.6098,-0.6096,-0.6082,-0.6076,-0.6063,-0.6055,-0.6049,-0.6049,-0.6045,-0.6053,-0.6051,-0.6057,-0.6056,-0.6077,-0.6079,-0.6055,-0.6055,-0.6055,0,-0.6172,-0.6172,-0.6156,-0.6153,-0.6146,-0.6142,-0.6137,-0.6123,-0.6119,-0.6107,-0.6107,-0.61,-0.6094,-0.6086,-0.6075,-0.6068,-0.6063,-0.6071,-0.6062,-0.6066,-0.6063,-0.6063,-0.6063,-0.6073,-0.6073,-0.6073,-0.6074,0,-0.6194,-0.6187,-0.6181,-0.6173,-0.6168,-0.616,-0.6152,-0.6151,-0.6134,-0.613,-0.6124,-0.6119,-0.611,-0.6103,-0.6094,-0.6088,-0.6078,-0.6076,-0.6077,-0.6081,-0.6086,-0.6083,-0.6058,-0.6076,-0.6076,-0.6076,-0.6076,-0.6075,-0.6212,-0.6211,-0.62,-0.6193,-0.6185,-0.6178,-0.6175,-0.6165,-0.616,-0.615,-0.6142,-0.6137,-0.6126,-0.6113,-0.6107,-0.6103,-0.6098,-0.6099,-0.61,-0.61,-0.6102,-0.6086,-0.6101,-0.6101,-0.6101,-0.6101,-0.6101,0,-0.6234,-0.6225,-0.6219,-0.6208,-0.6203,-0.6193,-0.6184,-0.618,-0.6175,-0.6166,-0.616,-0.6153,-0.6146,-0.6134,-0.6126,-0.6125,-0.612,-0.6123,-0.6124,-0.6122,-0.6107,-0.6107,-0.6127,-0.6127,-0.6127,-0.6127,-0.6127,-0.6127,-0.6244,-0.6242,-0.6233,-0.6227,-0.6218,-0.6212,-0.6208,-0.6201,-0.6193,-0.6185,-0.6179,-0.6171,-0.6161,-0.6152,-0.6146,-0.6142,-0.614,-0.6145,-0.614,-0.6126,-0.6123,-0.6121,-0.6121,-0.6144,-0.6144,-0.6156,-0.6156,-0.6156]}]]